DELTA 1 DEB, 7176

Orbit data source: Space-Track

DELTA 1 DEB, 7176 is space debris in SSO originally from a launch on Tue, 06 Nov 1973 UTC launched from the Air Force Western Test Range (AFWTR). Debris objects in space refer to the collection of defunct objects orbiting the Earth. Examples of debris include non-operational satellites, rocket bodies, and fragments generated from explosions, collisions, or faulty payload assembly.

Loading next visibility...
Identifier
7176, 1973-086EN
Orbit
SSO
Country
Flag of USUS
Related business
Manufacturer
Unknown
Mission
Spacecraft
Bus & Motor
Unknown
Mass
Unknown
Launch date (UTC)
1973-11-06 (53 years ago)
Launch vehicle
Unknown
Launch site
Air Force Western Test Range (AFWTR)
Object type
Payload
Rocket body
Debris
Shape & HBR
Unknown shape, 0.1 m
Radar Cross Section
Medium (>0.1 m² and <1 m²)

Expand to show TLE details & history
Last TLE update: 13 hours ago

TLE from 13 hours ago
0 DELTA 1 DEB
1 07176U 73086EN  26264.29660154  .00000029  00000-0  34975-3 0  9990
2 07176 102.2254 201.5443 0176071 176.8336 338.8883 12.75764848459858
Epoch: 2026-09-21T07:07Z
TLE epoch observation values (Epoch: 2026-09-21T07:07:06.373Z)
Latitude
24.44279°
Longitude
-79.78765°
Altitude
1,234.432 km
Speed
7.299 km/s
True Right ascension
01h 48m 40s
True Declination
24° 19' 18"
Sunlit
Object was in full shadow at epoch
Visualization orbit readout
Latitude
Unknown
Longitude
Unknown
Altitude
Unknown
Speed
Unknown
Apparent Right ascension
Unknown
Apparent Declination
Unknown
Sunlit
N/A
Visualization observer readout
Local Sidereal Time
12:52:32
Azimuth
Unknown
Elevation
Unknown
Doppler factor
Unknown
Orbital elements
Apogee altitude
1,492.263 km
Perigee altitude
1,219.909 km
Semi-major axis
7,734.223 km
Eccentricity
0.01761
Inclination
102.2254°
RAAN
201.5443°
Arg. of periapsis
176.8336°
True anomaly
338.14638°
Mean anomaly
338.8883°
Eccentric anomaly
338.51888°
Mean motion
3.19094 °/min
Orbital period
112.82 mins
BSTAR
0.00034975
Loading maneuver chart data...
Computing Atmospheric mass density...
Loading historical data...
Loading historical data...
Loading historical data...
Loading historical data...
Loading historical data...
Loading historical data...
Loading historical data...

Documentation

Showing up to 5 results
|